Location: Kernascl�den
(48.0062°N, 3.3198°W)
Time: 16:06:59
(UTC+00:00)

CZ-3B R/B - Pass Details

Date: 21 January 2021
Orbit: 278 x 17416 km, 54.8° (Epoch: 28 February)

Event Time Altitude Azimuth Distance (km) Brightness Sun altitude
Rises 19:10:09 0° 301° (WNW) 2,157 5.7 -22.0°
Reaches altitude 10° 19:11:26 10° 300° (WNW) 1,519 4.8 -22.2°
Maximum altitude 19:14:16 83° 212° (SSW) 699 2.2 -22.7°
Enters shadow 19:16:34 36° 128° (SE) 1,508 3.6 -23.1°
